sat.trackr.live / text

‹ back to catalog

ONEWEB-0056

NORAD 45159 · 2020-008AE

PAYLOAD ACTIVE UNKNOWN

§ Identity

Operator
Country
UK
Launch date
2020-02-06
Launch site
TYMSC
Launch vehicle
Mass (kg)
RCS (m²)

Purposes: comms

External: N2YO · Heavens-Above · Gunter

§ Orbital elements

Epoch: 2026-09-20T02:51:20.590848Z

Period
109.89 min
Inclination
87.8914°
Eccentricity
0.0001516
Mean motion
13.10372259 rev/d
Perigee alt
1,220.6 km
Apogee alt
1,222.9 km
Semi-major
7,599.9 km
B*
-1.7741e-3
RAAN
17.3684°
Arg perigee
107.7476°
Mean anomaly
252.3817°
Rev number
32,061

§ Raw data

ONEWEB-00561 45159U 20008AE  26263.11898832 -.00000607  00000+0 -17741-2 0  99992 45159  87.8914  17.3684 0001516 107.7476 252.3817 13.10372259320610

JSON: /api/v1/satellites/45159 · /tle

For live sub-satellite position, see the globe view (requires WebGL).

§ Visibility from observer

Set your observer location to see the next 7 days of passes ≥ 10°. The values pass through the URL so the page stays shareable.

No JS? Fill the form by hand. The geolocation button needs JavaScript.